Weather History for Crosby, ND

Change the Weather History Date:

Thursday, August 29, 2013

  Actual Average (KISN) Record (KISN)
Temperature  
Mean Temperature 72 °F 65 °F  
Max Temperature 86 °F 80 °F 99 °F (2012)
Min Temperature 59 °F 50 °F 34 °F (1988)
Degree Days  
Heating Degree Days 0 3  
Month to date heating degree days 42  
Since 1 June heating degree days 186  
Since 1 July heating degree days 66  
Cooling Degree Days 8 3  
Month to date cooling degree days 160  
Year to date cooling degree days 423  
Since 1 June cooling degree days 410  
Growing Degree Days 22 (Base 50)    
Moisture  
Dew Point 66 °F    
Average Humidity 84    
Maximum Humidity 100    
Minimum Humidity 51    
Precipitation  
Precipitation 0.58 in 0.04 in 0.70 in (1920)
Month to date precipitation 1.36  
Year to date precipitation 11.03  
Sea Level Pressure  
Sea Level Pressure 29.94 in    
Wind  
Wind Speed 5 mph (SW)    
Max Wind Speed 17 mph    
Max Gust Speed 28 mph    
Visibility 10 miles    
Events Rain , Thunderstorm    
T = Trace of Precipitation, MM = Missing Value Source: NWS Daily Summary

Daily Weather History Graph

Daily Weather History Graph

Search for Another Location

Airport:

Trip Planner

Search our weather history database for the weather conditions in past years. The results will help you decide how hot, cold, wet, or windy it might be!

Date:

Astronomy

Aug. 29, 2013 Rise Set
Actual Time 7:06 AM CDT 8:40 PM CDT
Civil Twilight 6:32 AM CDT 9:13 PM CDT
Nautical Twilight 5:52 AM CDT 9:54 PM CDT
Astronomical Twilight 5:08 AM CDT 10:38 PM CDT
Moon 12:43 AM CDT (8/29) 4:27 PM CDT (8/29)
Length of Visible Light 14h 41m
Length of Day
13h 34m
Last Quarter, 38% of the Moon is Illuminated
Aug 29
Last Quarter
Sep 5
New
Sep 12
First Quarter
Sep 19
Full
Sep 26
Last Quarter

Hourly Weather History & Observations

Time (CDT) Temp. Heat Index Dew Point Humidity Pressure Visibility Wind Dir Wind Speed Gust Speed Precip Events Conditions
12:15 AM 68.0 °F - 68.0 °F 100% 29.90 in 10.0 mi Calm Calm - N/A   Unknown
12:35 AM 68.0 °F - 68.0 °F 100% 29.90 in 10.0 mi NNW 4.6 mph - N/A   Unknown
12:55 AM 68.0 °F - 68.0 °F 100% 29.90 in 10.0 mi Calm Calm - N/A   Unknown
1:15 AM 68.0 °F - 68.0 °F 100% 29.89 in 10.0 mi ENE 6.9 mph - N/A Rain , Thunderstorm Light Rain
1:35 AM 68.0 °F - 68.0 °F 100% 29.90 in 10.0 mi North 5.8 mph - N/A Rain , Thunderstorm Light Rain
1:55 AM 68.0 °F - 68.0 °F 100% 29.92 in 10.0 mi North 5.8 mph - N/A Rain , Thunderstorm Light Rain
2:15 AM 66.2 °F - 66.2 °F 100% 29.95 in 1.5 mi SSW 17.3 mph 27.6 mph 0.08 in Rain , Thunderstorm Heavy Thunderstorms and Rain
2:35 AM 66.2 °F - 66.2 °F 100% 29.91 in 2.0 mi NE 9.2 mph - 0.45 in Rain , Thunderstorm Heavy Thunderstorms and Rain
2:55 AM 66.2 °F - 66.2 °F 100% 29.87 in 9.0 mi South 9.2 mph - 0.58 in Rain , Thunderstorm Light Thunderstorms and Rain
3:15 AM 66.2 °F - 66.2 °F 100% 29.87 in 10.0 mi ESE 8.1 mph - N/A   Scattered Clouds
3:35 AM 66.2 °F - 66.2 °F 100% 29.87 in 10.0 mi Calm Calm - N/A   Partly Cloudy
3:55 AM 66.2 °F - 66.2 °F 100% 29.86 in 10.0 mi South 3.5 mph - N/A   Unknown
4:15 AM 64.4 °F - 64.4 °F 100% 29.89 in 10.0 mi West 8.1 mph - N/A   Unknown
4:35 AM 66.2 °F - 66.2 °F 100% 29.89 in 10.0 mi NW 11.5 mph - N/A   Unknown
4:55 AM 64.4 °F - 64.4 °F 100% 29.89 in 10.0 mi NW 6.9 mph - N/A   Unknown
5:15 AM 64.4 °F - 64.4 °F 100% 29.89 in 9.0 mi Calm Calm - N/A   Unknown
5:35 AM 64.4 °F - 64.4 °F 100% 29.89 in 10.0 mi West 3.5 mph - N/A   Unknown
5:55 AM 62.6 °F - 62.6 °F 100% 29.88 in 9.0 mi WNW 4.6 mph - N/A   Unknown
6:15 AM 62.6 °F - 62.6 °F 100% 29.89 in 8.0 mi NW 6.9 mph - N/A   Unknown
6:35 AM 62.6 °F - 62.6 °F 100% 29.90 in 10.0 mi WNW 4.6 mph - N/A   Unknown
6:55 AM 62.6 °F - 62.6 °F 100% 29.91 in 10.0 mi NW 5.8 mph - N/A   Unknown
7:15 AM 60.8 °F - 60.8 °F 100% 29.91 in 9.0 mi WNW 4.6 mph - N/A   Clear
7:35 AM 59.0 °F - 59.0 °F 100% 29.91 in 10.0 mi West 3.5 mph - N/A   Clear
7:55 AM 60.8 °F - 60.8 °F 100% 29.91 in 8.0 mi SSW 3.5 mph - N/A   Clear
8:15 AM 62.6 °F - 62.6 °F 100% 29.92 in 10.0 mi SW 4.6 mph - N/A   Clear
8:35 AM 64.4 °F - 64.4 °F 100% 29.93 in 10.0 mi Calm Calm - N/A   Unknown
8:55 AM 64.4 °F - 64.4 °F 100% 29.93 in 10.0 mi WSW 4.6 mph - N/A   Unknown
9:15 AM 66.2 °F - 66.2 °F 100% 29.93 in 10.0 mi Calm Calm - N/A   Unknown
9:35 AM 68.0 °F - 68.0 °F 100% 29.93 in 10.0 mi SW 3.5 mph - N/A   Unknown
9:55 AM 68.0 °F - 68.0 °F 100% 29.94 in 10.0 mi WSW 3.5 mph - N/A   Unknown
10:15 AM 71.6 °F - 69.8 °F 94% 29.94 in 10.0 mi SW 6.9 mph - N/A   Unknown
10:35 AM 71.6 °F - 69.8 °F 94% 29.94 in 10.0 mi SW 6.9 mph - N/A   Unknown
10:55 AM 73.4 °F - 69.8 °F 88% 29.94 in 10.0 mi SW 5.8 mph - N/A   Unknown
11:15 AM 75.2 °F - 68.0 °F 78% 29.94 in 10.0 mi SW 6.9 mph - N/A   Unknown
11:35 AM 77.0 °F - 69.8 °F 78% 29.95 in 10.0 mi WSW 6.9 mph - N/A   Unknown
12:15 PM 80.6 °F 82.7 °F 66.2 °F 61% 29.95 in 10.0 mi West 9.2 mph - N/A   Unknown
12:55 PM 82.4 °F 84.6 °F 66.2 °F 58% 29.96 in 10.0 mi West 9.2 mph - N/A   Unknown
1:15 PM 82.4 °F 83.9 °F 64.4 °F 54% 29.97 in 10.0 mi NW 5.8 mph - N/A   Unknown
1:35 PM 82.4 °F 83.9 °F 64.4 °F 54% 29.97 in 10.0 mi North 5.8 mph - N/A   Unknown
1:55 PM 84.2 °F 85.6 °F 64.4 °F 51% 29.97 in 10.0 mi NNE 5.8 mph - N/A   Unknown
2:15 PM 84.2 °F 86.6 °F 66.2 °F 55% 29.96 in 10.0 mi NW 3.5 mph - N/A   Unknown
2:35 PM 84.2 °F 86.6 °F 66.2 °F 55% 29.97 in 10.0 mi NNW 6.9 mph - N/A   Unknown
2:55 PM 84.2 °F 86.6 °F 66.2 °F 55% 29.96 in 10.0 mi NNE 4.6 mph - N/A   Unknown
3:15 PM 84.2 °F 86.6 °F 66.2 °F 55% 29.96 in 10.0 mi North 5.8 mph - N/A   Unknown
3:35 PM 82.4 °F 84.6 °F 66.2 °F 58% 29.96 in 10.0 mi North 3.5 mph - N/A   Unknown
3:55 PM 84.2 °F 86.6 °F 66.2 °F 55% 29.96 in 10.0 mi ENE 5.8 mph - N/A   Unknown
4:15 PM 84.2 °F 85.6 °F 64.4 °F 51% 29.96 in 10.0 mi NE 3.5 mph - N/A   Unknown
4:35 PM 84.2 °F 85.6 °F 64.4 °F 51% 29.96 in 10.0 mi East 3.5 mph - N/A   Unknown
4:55 PM 84.2 °F 85.6 °F 64.4 °F 51% 29.96 in 10.0 mi SSE 4.6 mph - N/A   Unknown
5:15 PM 84.2 °F 85.6 °F 64.4 °F 51% 29.96 in 10.0 mi Calm Calm - N/A   Unknown
5:35 PM 86.0 °F 88.2 °F 66.2 °F 51% 29.96 in 10.0 mi East 3.5 mph - N/A   Unknown
5:55 PM 84.2 °F 86.6 °F 66.2 °F 55% 29.96 in 10.0 mi SE 4.6 mph - N/A   Unknown
6:15 PM 84.2 °F 86.6 °F 66.2 °F 55% 29.96 in 10.0 mi Calm Calm - N/A   Unknown
6:35 PM 84.2 °F 86.6 °F 66.2 °F 55% 29.97 in 10.0 mi SSE 3.5 mph - N/A   Unknown
6:55 PM 84.2 °F 85.6 °F 64.4 °F 51% 29.97 in 10.0 mi Calm Calm - N/A   Unknown
7:15 PM 82.4 °F 84.6 °F 66.2 °F 58% 29.97 in 10.0 mi Calm Calm - N/A   Unknown
7:35 PM 82.4 °F 85.4 °F 68.0 °F 62% 29.97 in 10.0 mi Calm Calm - N/A   Unknown
7:55 PM 80.6 °F 84.6 °F 71.6 °F 74% 29.97 in 10.0 mi ESE 4.6 mph - N/A   Unknown
8:15 PM 77.0 °F - 71.6 °F 83% 29.97 in 10.0 mi ESE 5.8 mph - N/A   Unknown
8:35 PM 75.2 °F - 71.6 °F 89% 29.97 in 10.0 mi ESE 6.9 mph - N/A   Unknown
8:55 PM 73.4 °F - 73.4 °F 100% 29.97 in 10.0 mi ESE 5.8 mph - N/A   Unknown
9:15 PM 71.6 °F - 71.6 °F 100% 29.98 in 10.0 mi ESE 5.8 mph - N/A   Unknown
9:35 PM 69.8 °F - 69.8 °F 100% 29.98 in 10.0 mi SE 5.8 mph - N/A   Unknown
9:55 PM 69.8 °F - 69.8 °F 100% 29.98 in 10.0 mi SE 8.1 mph - N/A   Unknown
10:15 PM 69.8 °F - 69.8 °F 100% 29.98 in 10.0 mi SSE 8.1 mph - N/A   Unknown
10:35 PM 68.0 °F - 68.0 °F 100% 29.98 in 10.0 mi SSE 6.9 mph - N/A   Unknown
10:55 PM 68.0 °F - 68.0 °F 100% 29.99 in 10.0 mi SSE 6.9 mph - N/A   Unknown
11:15 PM 68.0 °F - 68.0 °F 100% 29.99 in 10.0 mi South 4.6 mph - N/A   Unknown
11:35 PM 68.0 °F - 68.0 °F 100% 30.00 in 10.0 mi SSW 3.5 mph - N/A   Unknown
11:55 PM 66.2 °F - 66.2 °F 100% 30.00 in 10.0 mi SSW 5.8 mph - N/A   Unknown